www.pogodaiklimat.ru

Погода и климат >> Архив погоды >> Таиланд >> Пхетчабури


ПОГОДА в Пхетчабури

  • Прогноз погоды в Пхетчабури
  • Монитор погоды в Пхетчабури

АРХИВ ПОГОДЫ в Пхетчабури

Время (UTC), дата Ветер
(напр.,м/с)
 
Видим.   Явления Облачность Т
(С)
Тd
(С)
f
(%)
Тe
(С)
Тes
(С)
Комфортность P
(гПа)
Po
(гПа)
Тmin
(С)
Tmax
(С)
R
(мм)
R24
(мм)
S
(см)
06 17.02 Ю 15 11 км 6/0
[Ac lent Cs]
+32.7 +25.4 66 +47 +47 опасность
перегрева
1012.4 1011.9
09 17.02 Ю 12 11 км 6/1 600 м
[Cu med, cong Ac lent Cs]
+32.1 +25.6 69 +47 +47 опасность
перегрева
1009.5 1009.0
12 17.02 Ю 10 11 км в посл. час дождь 9/4 600 м
[Sc Ac As Cs]
+29.0 +24.9 79 +42 +42 опасность
перегрева
1010.7 1010.3 +34.3 0.0
15 17.02 ЮЗ 8 11 км 4/0
[Cs]
+27.5 +23.3 78 +37 +37 очень
душно
1011.8 1011.4
18 17.02 ЮЗ 12 11 км 4/0
[Cs]
+27.2 +24.0 83 +38 +38 очень
душно
1011.4 1010.9
21 17.02 ЮЗ 8 11 км 8/3 600 м
[Sc Ac lent Cs]
+26.6 +23.4 83 +36 +36 очень
душно
1010.1 1009.7
00 18.02 З 3 11 км 8/3 600 м
[Sc Ac lent Cs]
+25.0 +23.1 89 +33 +33 очень
душно
1011.7 1011.3 +24.5 0.0
03 18.02 ЮЗ 10 8000 м дымка 3/1 600 м
[Sc Ac lent Cs]
+28.5 +23.4 74 +39 +39 очень
душно
1014.5 1014.0
06 18.02 Ю 10 11 км 3/0
[Cs]
+33.0 +26.3 68 +49 +50 опасность
перегрева
1012.3 1011.9
09 18.02 Ю 13 11 км 3/0
[Cs]
+31.9 +25.4 69 +46 +46 опасность
перегрева
1009.4 1009.0
12 18.02 Ю 12 11 км 3/1 600 м
[Sc Ac lent Cs]
+28.5 +24.5 79 +40 +40 очень
душно
1010.9 1010.5 +34.1
15 18.02 Ю 6 11 км 9/3 600 м
[Sc Ac lent Cs]
+28.0 +24.4 81 +39 +39 очень
душно
1012.2 1011.8
18 18.02 ЮЗ 12 11 км 4/0
[Cs]
+26.8 +23.9 84 +37 +37 очень
душно
1011.3 1010.9
21 18.02 ЮЗ 10 11 км 6/0
[Cs]
+26.5 +24.0 86 +37 +37 очень
душно
1010.4 1010.0
00 19.02 Ю 3 11 км 6/0
[Cs]
+26.8 +24.9 89 +38 +39 очень
душно
1012.0 1011.6 +24.8
03 19.02 Ю 4 11 км 3/0
[Cs]
+30.1 +24.8 73 +43 +51 опасность
перегрева
1015.2 1014.8
06 19.02 Ю 10 11 км 3/1 600 м
[Cu med, cong Cs]
+33.5 +25.7 64 +49 +49 опасность
перегрева
1013.4 1012.9
09 19.02 Ю 15 11 км 3/1 600 м
[Cu med, cong Cs]
+30.9 +25.4 73 +45 +45 опасность
перегрева
1011.2 1010.8
12 19.02 Ю 12 11 км 3/0
[Cs]
+28.9 +24.8 79 +41 +41 опасность
перегрева
1012.2 1011.8 +34.6
15 19.02 ЮЗ 10 11 км 3/0
[Cs]
+28.0 +23.6 77 +38 +38 очень
душно
1014.3 1013.8
18 19.02 ЮЗ 11 11 км 3/0
[Cs]
+27.0 +22.9 78 +36 +36 очень
душно
1014.2 1013.8
21 19.02 З 10 11 км 3/0
[Cs]
+25.6 +22.0 81 +33 +33 очень
душно
1013.0 1012.6
00 20.02 СЗ 3 11 км 6/0
[Cs]
+25.0 +22.2 84 +32 +33 очень
душно
1014.3 1013.8 +24.4
03 20.02 штиль 0 11 км 4/0
[Cs]
+29.8 +24.4 73 +42 +57 опасность
перегрева
1016.3 1015.9
06 20.02 Ю 9 11 км 3/1 600 м
[Sc Cs]
+33.2 +24.4 60 +46 +47 опасность
перегрева
1014.5 1014.1
09 20.02 Ю 8 11 км 3/1 600 м
[Sc Cs]
+32.9 +26.1 68 +49 +50 опасность
перегрева
1012.3 1011.9
12 20.02 Ю 11 11 км 3/0
[Cs]
+29.4 +26.0 82 +44 +44 опасность
перегрева
1012.7 1012.3 +34.7
15 20.02 Ю 3 11 км 3/0
[Cs]
+28.4 +25.3 83 +41 +41 опасность
перегрева
1014.9 1014.5
18 20.02 ЮЗ 7 11 км 4/0
[Cs]
+27.5 +23.9 81 +38 +38 очень
душно
1013.9 1013.5
21 20.02 ЮЗ 8 11 км 4/0
[Cs]
+25.5 +22.2 82 +33 +33 очень
душно
1013.0 1012.6
00 21.02 штиль 0 11 км 6/0
[Cs]
+24.3 +22.4 89 +32 +32 очень
душно
1014.1 1013.6 +23.7
03 21.02 штиль 0 11 км 4/0
[Cs]
+30.5 +22.9 64 +40 +56 опасность
солнечного
удара
1016.5 1016.0
06 21.02 штиль 0 11 км 3/0
[Cs]
+34.2 +26.0 62 +50 +73 опасность
перегрева
1014.5 1014.1
09 21.02 Ю 8 11 км 3/0
[Cs]
+33.0 +26.5 69 +50 +51 опасность
перегрева
1011.8 1011.4
12 21.02 Ю 8 11 км 3/0
[Cs]
+29.5 +25.5 79 +43 +43 опасность
перегрева
1012.1 1011.6 +35.4
15 21.02 ЮЗ 14 11 км 3/0
[Cs]
+28.3 +23.8 77 +39 +39 очень
душно
1013.5 1013.1
18 21.02 ЮЗ 4 11 км 3/0
[Cs]
+26.5 +24.0 86 +37 +37 очень
душно
1012.3 1011.9
21 21.02 З 3 11 км 3/0
[Cs]
+25.8 +21.8 79 +33 +33 очень
душно
1010.5 1010.0
00 22.02 штиль 0 11 км 3/0
[Cs]
+24.1 +22.5 91 +32 +32 очень
душно
1011.9 1011.5 +23.8
03 22.02 Ю 2 11 км 3/0
[Cs]
+30.1 +22.6 64 +39 +51 опасность
солнечного
удара
1013.7 1013.3
06 22.02 Ю 12 11 км 3/0
[Cs]
+32.1 +24.7 65 +45 +45 опасность
перегрева
1012.0 1011.6
09 22.02 Ю 13 11 км 3/0
[Cs]
+32.5 +26.2 69 +48 +48 опасность
перегрева
1010.1 1009.6
12 22.02 Ю 12 11 км 3/0
[Cs]
+29.5 +25.4 79 +43 +43 опасность
перегрева
1009.8 1009.4 +34.4
15 22.02 ЮЗ 10 11 км 3/0
[Cs]
+28.5 +24.2 78 +40 +40 очень
душно
1011.3 1010.9
18 22.02 Ю 8 11 км 3/0
[Cs]
+28.1 +25.3 85 +41 +41 опасность
перегрева
1010.3 1009.9
21 22.02 ЮЗ 10 11 км 3/0
[Cs]
+27.6 +23.7 79 +38 +38 очень
душно
1009.2 1008.7
00 23.02 СЗ 2 11 км 4/0
[Cs]
+24.5 +22.9 91 +32 +33 очень
душно
1010.9 1010.4 +24.0
03 23.02 ЮЗ 5 11 км 3/0
[Cs]
+30.5 +23.2 65 +41 +47 опасность
перегрева
1012.6 1012.1
06 23.02 Ю 7 11 км 3/1 600 м
[Sc Cs]
+32.9 +25.3 64 +47 +51 опасность
перегрева
1010.1 1009.7
09 23.02 ЮВ 14 11 км 3/1 600 м
[Sc Cs]
+32.4 +26.3 70 +49 +49 опасность
перегрева
1008.0 1007.6
12 23.02 Ю 11 11 км 3/0
[Cs]
+29.7 +26.5 83 +46 +46 опасность
перегрева
1008.9 1008.5 +34.4
15 23.02 Ю 12 11 км 3/0
[Cs]
+29.0 +26.6 87 +45 +45 опасность
перегрева
1010.8 1010.4
18 23.02 ЮЗ 15 11 км 4/0
[Cs]
+28.6 +26.2 87 +43 +43 опасность
перегрева
1011.4 1011.0
21 23.02 ЮЗ 7 11 км 6/0
[Cs]
+28.3 +25.6 85 +42 +42 опасность
перегрева
1008.9 1008.4
00 24.02 Ю 10 11 км 4/0
[Ac lent Cs]
+27.2 +24.5 85 +38 +38 очень
душно
1010.7 1010.3 +26.8

 

Местоположение метеостанции Пхетчабури (Таиланд): широта 13.15 долгота 100.06 высота над уровнем моря 4 м.

В архиве по умолчанию представлена погода в Пхетчабури за последнюю неделю. Архивные данные за месяц целиком и за предыдущие месяцы, начиная с января 2011 года, Вы можете получить, выбрав интересующий диапазон дат из раскрывающегося списка и нажав кнопку "Ввод!".


*Определитесь, кто Вы:
робот инопланетянин человек

Внимание! Время в таблицах - всемирное. Для получения местного времени необходимо прибавить поправку, которая равна 7 ч.

Смотрите также архив погоды в соседних городах и на ближайших метеорологических станциях:

Погода в Самутсонгкхраме (Таиланд) (29 км)
Погода в Бангкок Пилот (Таиланд) (64 км)
Погода в Хуахине (Таиланд) (65 км)
Погода в Нонг Флуб Агромете (Таиланд) (73 км)
Погода на Ко Сичан (Таиланд) (80 км)
Погода в Бангкоке 2 (Таиланд) (82 км)
Погода в Бангна Агромете (Таиланд) (84 км)
Погода в Бангкоке (Таиланд) (84 км)
Погода в Самутрудкан Агромете (Таиланд) (85 км)
Погода в Паттайе (Таиланд) (90 км)

Пояснения к столбцам:

Ветер - указаны скорость ветра в м/с - средняя за 10 мин, порывы в срок и между сроками (в фигурных скобках) и направление, откуда дует ветер: С - северный, СВ - северо-восточный, В - восточный, ЮВ - юго-восточный, Ю - южный, ЮЗ - юго-западный, З - западный, СЗ - северо-западный.
Видимость - горизонтальная дальность видимости в метрах или километрах. При видимости от 1 до 10 км при отсутствии осадков обычно наблюдается дымка, при ухудшении видимости до 1 км и менее - туман. В сухую погоду видимость может ухудшаться дымом, пылью или мглою.
Явления - указаны атмосферные явления, наблюдавшиеся в срок или в последний час перед сроком; фигурными скобками обозначены явления, наблюдавшиеся между сроками (за 1-3 часа до срока); квадратными скобками обозначены град или гололедные отложения с указанием их диаметра в мм.
Облачность - указаны через наклонную черту общая и нижняя облачность в баллах и высота нижней границы облаков в метрах; квадратными скобками обозначены формы облаков: Ci - перистые, Cs - перисто-слоистые, Cc - перисто-кучевые, Ac - высококучевые, As - высокослоистые, Sc - слоисто-кучевые, Ns - слоисто-дождевые, Cu - кучевые, Cb - кучево-дождевые. Подробнее классификацию облаков см. в Атласе облаков (PDF).
T - Температура воздуха - температура, измеренная на высоте 2 м над землей.
Td - Температура точки росы - температура, при понижении до которой содержащийся в воздухе водяной пар достигнет насыщения.
f - Относительная влажность воздуха - влажноcть воздуха, измеренная на высоте 2 м над землей.
Te - Эффективная температура - температура, которую ощущает одетый по сезону человек в тени. Характеристика душности погоды. При расчете учитывается влияние влажности воздуха и скорости ветра на теплоощущения человека.
Tes - Эффективная температура на солнце - температура, которую ощущает человек, с поправкой на солнечный нагрев. Характеристика знойности погоды. Зависит от высоты солнца над горизонтом, облачности и скорости ветра. Ночью, в пасмурную погоду, а также при ветре 12 м/с и более поправка равна нулю.
P - Атмосферное давление - приведенное к уровню моря атмосферное давление.
Po - Атмосферное давление - измеренное на уровне метеостанции атмосферное давление.
Tmin - Минимальная температура - минимум температуры воздуха на высоте 2 м над землей.
Tmax - Максимальная температура - максимум температуры воздуха на высоте 2 м над землей.
R - Количество осадков - Количество выпавших осадков за период времени, мм. При наведении курсора мыши на число - период времени, за который выпало указанное количество осадков.
R24 - Количество осадков - Количество выпавших осадков за 24 часа, мм.
S - Снежный покров - Высота снежного покрова, см. При наведении курсора мыши на число - состояние снежного покрова и степень покрытия местности в баллах.